Powrót do katalogu

BREEZE-M DEB

AktywnyHEO
NORAD 38594·DEBRIS·🇷🇺 Russia

Wystrzelony Mar 14, 2008 z Baikonur Cosmodrome

Loading…

Następne Przeloty (najbliższe 24 godziny)

TLE

ŚwieżeSource: Space-Track

Epoka: Sep 14, 2026, 06:36 UTC

1 38594U 08011AR  26257.27530150  .00000004  00000-0  19527-2 0  9994
2 38594  49.4057  22.0622 6534969 205.7092  88.5323  2.97172697168982

Śledź BREEZE-M DEB w czasie rzeczywistym z AllMySat

Download on the App Store